Location: Hastringsfeld
(50.9620°N, 10.4787°E)
Time: 04:33:31
(UTC+00:00)

ATLAS 3B R/B - Pass Details

Date: 26 April 2024
Orbit: 943 x 1251 km, 63.8° (Epoch: 17 May)

Event Time Altitude Azimuth Distance (km) Brightness Sun altitude
Rises 19:30:31 0° 256° (WSW) 3,952 6.3 -8.8°
Reaches altitude 10° 19:33:18 10° 263° (W) 3,039 5.8 -9.2°
Maximum altitude 19:40:15 43° 334° (NNW) 1,623 4.2 -10.0°
Drops below altitude 10° 19:47:36 10° 44° (NE) 3,213 5.1 -10.9°
Sets 19:50:38 0° 51° (NE) 4,197 5.7 -11.3°
